This is the latest recevied weather packets stored in our database for station/object KC5DAQ-22. If no packets are shown the sender has not sent any weather packets the latest 10 day(s).
| Time | Temp. | Humidity | Pressure | Rain* | Wind** | Luminosity | Snow |
|---|---|---|---|---|---|---|---|
| 1777628537 | 18.33° C | 96% | 1008.6 hPa | 14.73 mm | - | 0 W/m² | - |
| 1777628474 | 18.33° C | 96% | 1008.9 hPa | 13.21 mm | - | 0 W/m² | - |
| 1777628415 | 18.33° C | 96% | 1009.1 hPa | 11.94 mm | - | 0 W/m² | - |
| 1777628352 | 18.33° C | 96% | 1009.4 hPa | 10.67 mm | - | 0 W/m² | - |
| 1777628291 | 18.33° C | 96% | 1009.8 hPa | 9.4 mm | - | 0 W/m² | - |
| 1777628229 | 18.33° C | 96% | 1010.4 hPa | 9.14 mm | - | 0 W/m² | - |
| 1777628169 | 18.33° C | 96% | 1011 hPa | 8.89 mm | - | 0 W/m² | - |
| 1777628109 | 18.33° C | 96% | 1011.3 hPa | 8.89 mm | - | 0 W/m² | - |
| 1777628046 | 18.33° C | 96% | 1011.3 hPa | 8.89 mm | - | 0 W/m² | - |
| 1777627985 | 18.33° C | 96% | 1011.1 hPa | 8.64 mm | - | 0 W/m² | - |
| 1777627923 | 18.33° C | 96% | 1010.7 hPa | 8.64 mm | - | 0 W/m² | - |
| 1777627863 | 18.33° C | 96% | 1010.2 hPa | 8.64 mm | - | 0 W/m² | - |
| 1777627803 | 18.33° C | 96% | 1009.6 hPa | 8.38 mm | - | 0 W/m² | - |
| 1777627743 | 18.33° C | 96% | 1009.2 hPa | 8.38 mm | - | 0 W/m² | - |
| 1777627682 | 18.33° C | 96% | 1008.8 hPa | 8.38 mm | - | 0 W/m² | - |
| 1777627622 | 18.33° C | 96% | 1008.4 hPa | 8.38 mm | - | 0 W/m² | - |
| 1777627564 | 18.33° C | 96% | 1008.3 hPa | 8.13 mm | - | 0 W/m² | - |
| 1777627503 | 18.33° C | 96% | 1008.2 hPa | 7.87 mm | - | 0 W/m² | - |
| 1777627443 | 18.33° C | 96% | 1008.1 hPa | 7.87 mm | - | 0 W/m² | - |
| 1777627382 | 18.33° C | 96% | 1008.2 hPa | 7.87 mm | - | 0 W/m² | - |
| 1777627323 | 18.33° C | 96% | 1008.2 hPa | 7.87 mm | - | 0 W/m² | - |
| 1777627264 | 18.33° C | 96% | 1008.4 hPa | 7.87 mm | - | 0 W/m² | - |
| 1777627205 | 18.33° C | 96% | 1008.4 hPa | 7.87 mm | - | 0 W/m² | - |
| 1777627143 | 18.33° C | 96% | 1008.5 hPa | 7.87 mm | - | 0 W/m² | - |
| 1777627085 | 18.33° C | 96% | 1008.5 hPa | 7.87 mm | - | 0 W/m² | - |
* Rain latest hour (hover to see other rain measurements)
** Current wind speed in m/s (hover to see current wind gust speed)